Wind_Speed
1 1 1 2 3 4 5 6 6 6 6 6 6 6 6 7 6 7 7 7 7 6 7 7 9 10 11 11 11 10 7 5 6 4 2 2 4 5 7 8 8 8 7 6 6 7 8 9 10 10 9 6 5 4 4 5 2 1 2 3 4 5 5 5 4 3 4 3 3 4 2 4 3 3 2 3 2 5 7 9 11 12 12 12 15 19 22 22
1 0 2 3 4 5 6 6 6 6 6 7 7 7 7 7 7 7 7 7 7 7 7 8 10 11 11 11 11 10 6 7 9 2 5 3 4 6 7 8 8 8 8 7 7 8 8 7 7 7 6 4 4 4 3 4 4 3 3 4 5 6 5 4 4 6 5 5 4 3 3 4 2 3 2 3 5 6 5 7 10 12 11 12 15 17 18 20
0 1 2 4 4 5 6 6 6 7 7 7 8 8 8 8 7 7 7 7 7 7 7 8 10 10 11 10 10 9 6 8 8 4 4 5 6 7 9 9 8 8 8 7 8 9 9 9 10 7 5 4 4 5 4 4 4 4 4 4 6 5 4 4 6 6 6 6 6 4 5 2 3 3 1 2 4 8 6 4 6 9 11 9 11 15 17 17
1 2 3 4 4 5 5 6 7 7 8 9 9 10 9 9 8 8 7 7 7 8 8 9 9 10 10 10 9 7 5 6 3 4 4 7 8 9 9 9 8 8 8 7 8 10 11 11 10 8 5 5 5 5 5 4 3 4 5 6 7 5 4 4 7 6 5 5 5 3 3 1 3 5 3 2 3 7 8 7 7 6 11 11 9 12 15 15
2 2 3 4 4 5 6 7 8 9 10 10 11 11 10 10 9 8 8 8 8 8 9 9 9 10 10 10 9 5 3 3 2 4 6 9 10 9 9 9 8 8 8 7 9 10 10 9 8 6 5 4 6 6 5 7 5 4 5 7 8 8 7 2 7 5 4 2 2 2 0 1 4 7 9 8 6 4 4 5 6 6 7 11 10 11 13 12
2 3 4 5 5 6 7 8 9 10 11 11 11 11 11 10 9 9 8 8 8 9 9 8 9 10 10 12 9 2 3 1 3 5 8 11 12 11 10 9 7 7 8 8 9 9 8 8 7 5 5 5 7 7 7 9 7 5 5 7 9 7 5 2 6 3 3 1 1 1 1 2 6 9 11 13 9 4 3 3 3 5 8 13 12 11 10 10
3 4 4 5 5 6 8 9 10 11 11 11 11 11 11 10 10 10 9 9 8 9 8 8 8 9 10 11 7 3 4 2 5 7 9 12 14 13 10 7 6 7 7 8 9 8 7 8 8 6 5 5 7 8 8 7 5 3 4 7 7 2 2 3 5 2 2 1 1 3 2 1 5 8 8 12 9 5 5 5 7 10 13 15 13 12 12 14
5 4 4 5 6 8 9 11 11 11 11 11 12 12 12 12 11 10 10 10 9 8 8 7 8 7 9 9 5 4 2 2 5 8 11 14 15 14 10 6 7 8 8 9 8 8 6 7 8 6 6 5 7 6 3 2 3 4 6 9 5 0 2 4 5 3 3 1 2 2 2 6 10 11 9 10 8 6 7 8 10 13 15 16 13 14 14 16
6 5 5 6 8 10 11 12 11 11 11 12 12 12 13 13 13 12 10 10 9 8 7 7 7 7 9 7 4 3 1 2 6 9 14 16 14 12 9 5 7 8 9 8 6 7 5 6 6 5 6 5 7 6 1 1 3 3 6 8 5 3 2 5 4 4 4 2 3 2 4 10 11 11 10 8 7 7 9 10 11 12 14 13 12 13 14 15
6 5 6 8 10 11 11 12 10 10 11 12 13 13 14 14 13 13 10 9 9 8 7 7 7 7 8 6 5 3 4 4 7 10 13 15 13 11 8 5 7 7 8 8 6 6 5 5 8 7 6 5 7 6 3 3 1 2 4 6 5 6 2 5 4 4 4 2 4 4 5 9 5 5 6 5 7 8 11 13 12 13 13 13 12 13 15 17
5 6 7 9 11 12 11 11 10 10 11 14 14 12 11 10 10 9 8 8 7 7 7 6 7 7 8 6 4 1 5 7 9 10 12 13 12 10 9 8 6 6 7 8 7 5 5 7 9 6 2 3 6 4 2 1 3 4 5 5 6 8 5 5 5 4 4 3 5 4 6 8 5 6 5 6 8 9 12 13 13 13 12 13 13 12 14 17
4 6 8 10 11 12 11 10 10 11 13 15 14 9 8 7 7 5 4 5 5 6 6 6 6 6 6 4 2 2 4 8 9 8 11 13 13 11 11 8 5 5 6 8 8 6 6 7 7 5 2 3 5 3 1 3 4 4 3 5 7 9 8 8 7 5 4 3 5 4 5 6 7 8 7 8 9 10 13 13 13 12 11 11 11 10 12 16
4 6 9 11 12 12 12 10 10 11 14 16 11 7 7 7 6 4 2 3 4 4 4 5 5 3 4 1 2 0 2 9 9 7 11 15 14 10 9 7 3 6 6 8 8 5 4 5 5 5 3 3 3 2 2 3 2 4 4 5 5 6 6 6 6 6 4 3 5 5 4 3 7 9 8 8 10 12 12 11 12 11 11 10 10 10 11 15
5 8 10 11 11 12 12 10 10 12 14 15 10 6 7 7 7 5 3 3 3 3 3 3 2 1 2 1 2 2 4 8 8 8 13 16 16 10 6 5 4 5 6 7 7 5 4 3 5 5 1 2 2 2 4 4 3 3 4 4 3 3 2 3 5 6 5 2 4 4 2 3 7 8 6 7 10 13 12 11 11 10 10 9 9 10 10 14
6 9 10 11 11 12 13 10 10 12 14 15 9 5 6 8 9 7 4 2 2 1 1 1 0 1 1 2 1 2 5 7 7 10 13 13 13 10 7 8 7 5 4 5 5 3 4 4 5 3 0 2 1 2 4 4 4 3 3 3 2 4 2 2 3 4 3 2 5 3 3 4 6 7 5 6 10 13 12 11 12 11 11 10 10 10 9 12
7 10 10 11 12 12 13 11 10 12 13 14 9 3 5 9 12 11 5 1 2 3 2 1 0 3 1 2 1 2 6 8 8 10 11 9 9 8 10 11 8 6 4 4 4 3 4 5 3 1 1 2 3 3 3 4 4 4 4 3 4 4 3 2 1 1 2 4 5 3 3 4 6 5 5 8 11 13 12 12 12 12 12 11 9 9 9 10
8 10 11 11 12 12 14 12 10 12 13 14 9 1 3 9 13 13 8 3 5 5 3 5 3 2 1 2 1 5 9 10 8 9 11 11 10 7 8 8 5 4 4 4 4 5 5 3 1 0 2 3 3 3 2 3 3 1 0 2 5 4 2 1 1 1 1 3 2 3 5 6 7 6 6 9 11 12 11 11 12 11 10 10 9 9 9 9
9 10 11 11 12 13 14 13 11 12 13 13 9 2 2 7 13 14 10 4 2 2 2 7 5 1 1 3 5 10 13 12 8 9 14 14 10 7 6 6 5 5 5 4 5 5 3 2 2 2 2 2 2 2 2 2 3 4 4 3 5 6 7 4 1 1 0 1 1 6 9 8 8 7 6 8 10 12 11 10 10 10 11 10 9 9 9 9
9 11 11 12 13 13 14 14 11 12 13 12 9 4 3 2 8 11 13 10 2 1 1 5 5 0 3 6 8 13 14 10 7 8 17 20 13 9 8 7 6 5 4 2 3 4 1 1 2 2 2 2 3 4 3 5 5 5 6 5 4 5 6 2 3 1 1 1 2 7 9 8 8 7 7 8 9 10 10 10 9 9 10 9 9 8 8 9
9 11 12 12 13 13 15 15 12 11 11 10 9 5 3 2 1 3 10 10 5 3 3 3 4 3 5 6 9 15 11 6 4 11 22 25 17 9 6 5 6 4 2 2 1 1 1 2 2 3 4 5 6 5 5 6 6 6 5 5 5 6 4 3 4 2 3 2 4 9 10 8 8 7 7 7 7 9 10 9 9 8 8 8 9 9 9 9
10 12 12 13 14 14 15 14 12 11 9 8 7 4 1 2 1 1 3 4 4 4 3 2 3 2 4 5 9 12 6 3 3 10 24 25 13 5 2 3 4 2 0 2 1 1 1 1 3 4 5 6 5 5 5 6 6 6 5 4 6 5 1 4 2 1 1 2 5 10 10 8 7 6 6 5 6 6 7 8 9 9 8 7 8 9 8 7
10 12 12 14 14 14 15 12 10 10 7 6 6 3 3 3 1 1 0 2 3 2 1 1 3 4 3 1 6 7 3 3 3 9 22 23 10 4 4 5 4 2 3 3 1 1 1 2 4 4 5 5 5 3 4 5 5 5 4 4 4 3 1 2 2 1 1 2 4 8 9 7 6 6 5 5 5 5 6 7 8 8 8 8 8 8 8 8
11 12 13 14 14 14 14 9 7 9 8 7 7 5 3 2 2 1 1 1 2 1 1 2 4 8 7 2 7 10 3 5 6 9 18 17 7 3 4 5 5 4 4 6 4 3 1 2 4 4 4 4 5 4 3 5 5 4 4 4 2 3 2 1 0 1 2 1 4 8 7 5 5 6 5 5 5 5 6 7 7 7 8 8 8 7 8 8
12 12 13 14 13 14 12 6 6 9 9 9 8 6 2 1 2 2 1 0 2 0 1 2 2 6 7 2 6 9 4 4 5 8 14 13 7 3 2 3 4 3 4 6 5 1 2 2 3 5 4 4 5 4 5 5 5 2 2 2 3 4 2 2 2 2 3 2 4 9 5 2 5 5 4 4 4 5 6 6 7 6 7 8 8 7 7 7
12 12 12 13 12 14 9 2 5 7 5 6 6 4 1 1 1 1 0 1 2 1 0 0 1 3 5 5 5 4 1 3 4 7 9 9 6 4 2 1 2 4 5 6 4 1 2 2 3 5 4 4 4 2 6 4 5 3 3 3 4 5 5 4 6 5 2 3 5 7 2 1 4 5 5 4 4 5 4 5 6 6 7 7 7 7 7 6
12 11 12 12 12 13 7 2 5 6 3 4 4 3 2 1 2 2 0 2 1 1 1 1 0 4 7 7 7 1 3 2 4 6 6 6 4 1 2 2 0 3 4 4 2 1 2 3 3 5 5 5 2 2 5 4 4 3 1 2 3 4 5 6 6 3 3 4 4 8 3 1 3 4 5 5 5 5 5 5 6 5 6 5 5 6 6 6
11 11 11 11 12 12 5 1 7 6 1 2 4 4 3 1 1 2 1 1 1 1 3 3 2 5 7 8 9 1 3 5 5 5 7 6 3 2 1 4 2 1 2 2 1 0 3 5 6 7 5 4 2 2 4 4 2 3 2 3 4 5 7 7 5 4 4 4 2 7 4 1 2 3 5 6 6 5 5 6 6 5 6 6 6 6 6 6
10 11 12 12 11 11 6 3 5 4 2 3 4 4 2 1 1 1 1 1 2 2 1 3 2 4 7 7 7 4 2 5 3 5 9 6 4 2 1 5 4 4 2 2 2 1 2 5 6 6 5 3 3 4 4 3 1 2 1 4 6 6 7 6 4 4 5 4 3 5 5 1 1 3 5 6 5 6 6 6 6 6 6 6 6 6 6 6
9 10 14 14 10 10 7 3 3 2 2 4 3 2 2 1 1 1 0 1 1 1 1 2 3 5 8 5 5 6 2 2 3 5 8 5 6 3 1 3 5 6 3 1 2 1 2 3 2 3 3 3 4 6 4 1 3 3 5 7 6 6 6 4 4 4 4 5 3 3 5 2 1 3 3 4 4 4 6 6 5 6 6 6 6 6 6 5
7 8 15 18 12 10 7 2 4 3 3 3 1 1 1 1 1 1 1 1 1 1 1 3 2 4 8 5 4 8 5 3 4 5 4 4 8 8 1 1 5 5 1 0 2 2 2 1 0 1 2 2 5 7 4 4 4 5 7 7 6 5 4 3 4 3 3 3 1 1 1 0 2 2 1 1 1 0 5 6 5 6 6 5 5 5 5 5
5 6 15 21 15 11 6 1 3 5 3 2 1 2 1 1 1 1 1 1 1 3 2 2 3 4 7 4 3 7 6 3 5 5 4 4 8 11 6 3 5 4 1 2 1 2 2 0 0 1 1 2 5 6 2 3 2 3 4 5 5 3 1 1 3 3 2 2 1 1 2 1 2 2 3 3 3 4 3 6 7 7 6 6 5 5 5 5
5 5 13 21 17 12 7 3 6 6 2 1 2 1 1 1 3 2 2 0 0 3 2 1 3 5 6 3 3 6 4 3 5 3 2 3 6 9 9 6 6 4 3 5 4 1 0 1 1 1 1 1 4 5 2 1 1 2 4 4 5 3 1 1 1 2 2 1 2 1 3 2 2 2 3 4 4 5 3 4 8 7 6 6 5 5 5 4
4 4 11 19 17 14 11 7 6 3 0 2 2 1 1 1 3 1 2 3 1 1 1 2 4 6 6 4 4 5 1 1 4 4 2 2 5 6 10 10 8 5 3 5 5 4 2 1 2 1 0 3 4 4 3 2 3 5 5 4 3 3 3 3 2 3 2 1 2 2 2 1 3 2 3 4 3 4 5 4 7 7 6 6 5 5 5 4
3 3 10 18 19 16 13 9 5 1 3 2 2 1 4 4 2 1 1 3 1 2 2 2 5 6 3 1 2 4 2 1 3 5 4 3 4 4 6 9 10 6 3 4 2 3 2 2 3 2 2 3 4 3 1 4 4 4 4 4 3 3 2 2 2 3 4 4 2 0 2 1 2 2 2 4 3 4 5 6 7 6 5 5 5 5 4 4
2 1 8 16 19 18 15 10 5 2 4 1 1 3 5 4 2 1 2 2 2 4 4 4 5 4 1 2 2 2 2 1 3 4 4 4 4 3 3 5 8 7 4 3 2 2 4 2 1 1 2 3 3 1 1 3 3 3 3 3 3 2 1 3 4 5 4 4 4 0 2 3 2 3 3 3 3 4 4 5 6 5 5 5 4 4 4 4
1 1 6 14 18 19 16 9 4 3 3 1 3 6 4 2 2 3 2 2 2 4 7 5 3 3 3 1 1 3 1 2 3 3 2 4 4 4 3 2 5 6 4 3 3 2 3 3 3 1 1 1 2 1 2 3 2 3 3 3 4 4 2 1 4 5 4 3 2 2 3 1 1 3 3 3 4 4 4 5 5 5 5 5 4 5 4 4
2 1 4 14 20 19 14 9 4 1 1 2 6 4 2 2 2 2 2 3 1 1 5 3 2 3 5 3 3 7 5 1 4 4 1 2 2 4 3 1 3 6 4 1 2 1 2 6 7 3 1 0 1 1 2 3 2 2 2 3 5 2 3 1 3 3 3 3 2 2 3 2 2 1 2 4 5 4 4 5 5 5 5 5 5 5 5 4
1 1 1 14 20 16 13 11 6 2 0 5 7 4 2 2 1 2 3 3 1 1 3 2 2 2 3 3 3 6 7 4 5 5 3 1 1 3 3 1 4 7 5 2 1 2 2 4 5 2 1 1 1 1 2 3 2 1 1 3 3 1 1 3 2 2 3 3 3 3 2 2 1 1 3 4 5 6 6 5 5 5 5 5 5 5 5 3
1 2 1 14 19 12 14 14 7 2 3 6 5 3 2 2 2 2 2 2 1 1 2 1 1 2 2 4 4 4 5 4 5 4 3 2 2 3 3 2 3 7 7 3 2 3 3 2 2 3 3 1 2 1 3 2 3 1 2 4 3 1 2 3 2 1 2 3 2 4 3 2 1 1 3 3 3 5 6 6 6 6 6 5 4 3 3 2
2 1 1 16 18 9 12 12 7 5 5 5 3 2 2 2 2 2 1 2 1 1 2 2 2 3 3 4 3 2 3 4 5 3 3 3 2 2 5 3 4 7 7 3 2 3 3 3 3 5 7 3 2 2 3 3 3 3 3 4 4 2 3 3 2 1 1 3 2 3 4 1 1 2 3 4 4 3 3 4 4 5 4 3 3 2 3 3
2 1 2 16 16 8 8 7 7 6 4 4 4 3 2 0 1 2 1 1 1 0 1 1 2 2 2 3 4 3 3 4 4 2 2 3 3 2 2 2 3 5 6 3 1 2 3 3 3 5 7 3 2 2 3 3 1 3 3 3 3 3 3 4 3 1 1 2 1 2 4 1 2 1 3 4 3 3 3 2 3 4 4 3 3 4 3 3
2 2 5 17 14 7 7 6 4 5 4 3 3 2 1 1 0 1 1 0 1 1 1 0 1 2 2 3 3 3 3 3 3 3 2 3 4 3 1 2 3 2 2 3 2 1 1 2 3 5 4 2 2 2 3 2 2 2 3 4 3 3 3 1 3 2 3 3 1 1 2 2 1 1 2 2 2 3 2 2 2 3 4 4 3 3 4 4
3 2 6 18 12 3 6 6 3 4 4 2 1 1 1 1 1 0 0 1 1 1 0 0 1 1 1 2 2 3 3 2 2 3 3 3 3 2 2 3 4 2 1 3 2 1 0 1 3 4 2 2 2 2 3 2 3 2 3 4 3 3 2 2 3 2 2 3 2 1 2 2 2 2 2 2 2 2 1 2 1 2 2 3 4 4 4 4
3 2 5 17 14 4 3 4 3 3 3 2 2 2 1 2 3 1 1 3 2 1 2 1 1 1 1 0 1 3 3 2 3 3 2 3 2 1 2 3 4 3 2 1 2 2 2 1 3 4 3 2 1 2 3 2 2 2 2 4 3 3 1 2 1 1 1 2 3 3 3 1 3 4 3 3 3 3 3 3 3 4 4 4 4 4 5 4
1 2 3 13 19 12 3 1 3 4 4 3 4 2 1 2 2 2 1 2 1 1 2 1 1 0 2 2 3 3 1 1 1 1 1 3 1 2 1 1 2 3 3 0 2 2 1 2 3 3 3 4 3 3 4 3 3 3 1 3 3 3 2 1 1 0 2 3 5 2 3 1 2 4 4 5 4 4 4 4 4 4 4 4 4 5 5 4
1 2 2 5 11 9 3 2 3 4 3 3 3 2 2 2 1 1 1 1 1 1 2 1 1 1 2 4 3 1 1 1 1 2 2 3 2 1 2 1 1 0 2 1 2 1 2 2 2 3 1 3 5 6 6 5 4 6 3 2 2 4 3 1 1 1 2 4 4 1 1 4 3 2 3 5 5 4 4 3 3 3 4 5 5 5 4 4
2 2 1 1 2 4 4 4 4 2 1 0 1 2 3 2 2 1 1 0 0 0 1 1 1 1 3 5 3 2 5 3 2 4 2 1 3 1 2 2 1 2 4 2 2 1 2 2 2 3 4 6 7 9 8 5 5 6 6 5 2 4 3 1 2 3 4 4 4 2 5 7 7 6 3 3 4 3 2 3 4 5 5 5 5 5 5 5
2 1 1 1 1 2 3 2 4 4 4 3 2 1 3 3 2 1 0 0 1 0 1 0 3 5 4 4 3 2 6 5 2 2 1 1 3 3 1 1 2 3 4 1 1 2 1 2 1 1 7 10 9 8 7 5 4 5 5 6 3 3 4 2 3 5 3 3 6 6 8 9 9 6 2 3 1 2 4 5 5 5 6 6 6 6 6 6
3 3 0 1 2 2 1 1 3 3 5 3 2 2 4 4 3 1 0 1 1 1 2 2 4 6 4 3 3 2 4 4 2 0 1 1 3 3 1 0 2 1 1 2 1 2 1 2 1 2 7 11 7 4 5 5 3 4 3 3 2 1 3 4 4 5 5 6 7 9 10 10 7 3 1 1 2 4 5 5 5 6 7 6 6 7 6 6
2 3 1 2 4 2 0 2 2 1 3 3 2 1 2 3 3 1 0 1 1 2 4 3 5 6 2 1 2 3 3 3 3 3 1 2 2 1 1 1 1 4 4 2 1 0 1 1 1 1 4 7 1 2 6 4 1 3 3 1 2 4 4 4 4 3 5 7 7 8 10 9 4 3 3 3 4 5 5 6 7 7 6 7 8 8 7 5
4 4 3 4 4 1 1 1 1 2 4 4 2 1 1 3 3 1 1 3 3 2 3 3 5 5 2 1 3 4 3 3 3 3 3 2 2 1 1 1 2 3 4 2 1 2 1 1 2 1 3 4 2 5 10 5 2 2 3 2 3 4 4 3 3 3 5 6 7 8 8 6 3 4 3 4 5 6 6 8 8 7 6 8 9 9 8 3
5 4 1 3 3 1 2 1 2 3 2 2 2 1 1 2 1 1 0 1 2 3 2 2 4 4 1 2 3 2 2 3 4 3 3 2 3 2 1 0 0 1 2 1 1 1 1 2 3 2 2 4 5 9 12 7 2 1 2 1 2 3 4 5 5 5 6 5 5 6 7 7 4 2 3 4 5 7 8 8 8 8 8 8 9 10 6 1
Wind_Direction
118 97 7 332 329 329 326 324 325 325 324 325 323 321 320 315 306 293 282 278 278 284 294 311 320 327 333 330 340 335 317 280 253 220 183 29 0 325 326 327 325 322 317 310 295 281 267 246 237 232 234 231 217 240 200 181 202 162 218 242 249 257 254 266 289 350 20 51 91 125 17 4 104 120 125 172 143 111 113 93 80 72 73 88 100 112 121 127
126 334 318 316 319 318 318 318 316 317 318 320 316 315 317 313 310 299 287 283 281 285 292 308 317 326 332 330 339 335 316 274 257 156 74 4 332 328 333 333 329 327 322 308 296 290 273 258 251 225 219 238 208 202 181 178 192 197 229 237 240 252 267 296 16 32 30 14 5 82 55 5 63 118 139 193 158 124 118 116 102 91 90 96 104 116 123 125
31 318 315 312 313 312 314 314 314 317 317 319 317 313 313 310 308 299 288 282 279 283 288 302 311 322 329 329 335 331 318 281 255 128 57 338 335 329 330 334 330 329 324 307 306 306 294 294 295 272 231 240 224 187 171 172 181 199 218 241 246 251 293 346 42 45 45 19 344 31 64 14 37 90 163 232 136 94 58 66 93 104 111 111 116 124 126 128
1 328 319 313 310 311 314 318 322 326 325 324 320 315 311 306 302 299 292 282 279 280 285 296 306 319 327 331 336 335 316 280 247 96 10 339 337 327 327 328 328 330 326 310 302 296 289 290 288 275 255 256 245 215 199 181 168 196 207 233 249 265 305 30 63 49 52 36 352 17 56 25 83 74 26 333 109 80 41 24 27 71 115 122 124 125 127 130
10 335 321 313 313 317 323 331 332 331 331 327 322 317 314 309 304 301 297 290 286 283 288 297 306 315 324 332 336 335 299 269 104 53 355 344 338 333 329 323 322 327 329 316 298 288 279 275 270 259 251 256 255 243 222 202 192 222 230 247 258 271 282 85 86 52 57 73 350 303 36 92 98 62 38 46 71 71 27 18 20 28 98 118 122 122 127 127
356 330 320 318 321 328 333 336 336 334 331 326 321 319 317 315 310 303 299 297 294 292 293 298 306 313 320 329 333 298 254 303 69 9 350 350 345 341 334 328 319 323 331 314 294 281 269 262 253 245 240 239 249 248 240 218 199 230 243 254 258 260 276 71 91 68 48 76 263 308 61 113 109 76 56 64 68 70 51 44 59 44 82 107 114 111 110 102
347 332 326 327 335 340 341 339 337 334 329 325 322 320 318 317 314 308 300 296 295 297 297 300 306 308 314 328 333 235 224 52 41 352 347 347 346 345 340 342 331 336 332 305 293 283 278 269 254 249 249 243 247 247 257 240 180 216 257 264 271 274 289 68 93 117 81 50 18 48 32 335 106 93 69 69 69 73 83 83 87 74 77 89 91 87 83 79
354 350 346 347 350 346 344 341 337 333 330 327 323 320 317 313 312 307 301 294 291 295 297 300 300 305 319 329 318 246 217 45 9 344 338 337 344 347 347 0 345 338 317 294 296 300 303 285 267 263 264 258 262 263 288 275 196 221 249 258 263 189 235 107 103 135 137 150 69 66 74 59 82 93 73 71 74 73 83 84 83 78 76 78 78 79 79 79
4 8 4 359 353 347 344 339 336 334 333 331 325 319 312 307 303 299 297 291 285 288 292 295 297 309 321 318 289 278 63 23 342 340 336 338 349 349 348 359 342 328 303 295 293 291 299 296 294 304 306 295 283 290 18 218 243 246 253 260 259 259 241 120 132 169 164 174 127 161 127 97 98 92 70 69 84 80 81 79 79 82 80 79 79 79 80 81
10 14 6 359 351 347 345 340 337 334 335 335 327 315 306 301 295 289 288 285 278 278 280 290 300 313 315 301 275 287 56 29 339 339 339 345 351 347 341 324 330 331 311 308 294 284 299 321 329 328 324 317 302 299 255 221 301 325 300 297 290 289 278 140 192 184 164 178 162 189 123 113 111 80 72 84 94 92 89 81 75 78 77 75 74 72 73 74
14 12 3 357 352 348 345 340 336 331 336 337 330 322 315 311 304 291 279 276 271 267 274 287 296 317 314 295 288 328 57 19 340 345 348 346 341 334 323 301 304 328 327 312 301 327 349 340 337 323 306 327 319 306 234 325 344 308 316 316 280 271 249 190 208 178 158 161 175 191 108 102 64 62 92 102 99 97 93 88 82 79 77 74 72 69 67 68
13 7 358 354 351 349 347 341 335 336 340 341 339 339 342 344 338 319 280 265 261 261 266 283 296 323 313 290 353 62 59 8 351 357 352 346 338 320 312 306 277 289 317 298 300 356 8 340 329 298 305 346 318 306 321 355 321 291 304 295 273 263 245 211 196 172 165 156 166 162 110 85 57 82 110 108 105 99 94 91 87 83 81 78 74 73 70 70
6 359 354 352 353 352 350 343 341 345 344 347 351 1 10 13 9 6 326 270 255 257 257 279 296 319 307 300 68 99 8 1 1 358 344 347 346 321 304 322 292 275 293 274 281 325 335 330 310 286 326 329 301 302 297 298 279 284 263 248 268 280 255 201 165 150 153 146 162 158 131 90 76 99 115 117 115 103 96 92 91 88 84 82 78 78 74 73
3 356 353 354 355 354 353 349 348 350 348 352 359 19 29 30 25 16 334 283 249 255 259 281 301 261 292 111 104 350 0 351 358 356 336 341 350 335 298 313 300 276 286 267 264 286 291 294 277 276 308 271 292 325 291 265 217 258 263 242 232 259 273 117 125 149 160 158 186 169 126 118 100 108 117 119 117 105 101 97 96 95 90 89 85 85 82 79
0 355 356 356 357 357 356 354 350 353 352 352 360 33 42 37 27 13 331 296 250 235 214 271 56 227 260 117 186 356 10 344 351 349 331 332 344 338 313 314 302 276 275 265 259 270 272 258 255 271 209 188 247 284 280 258 215 211 244 267 231 215 193 98 122 162 156 147 198 178 94 113 103 109 128 115 109 104 103 102 100 101 98 98 94 92 91 86
358 355 357 356 356 357 357 354 350 356 353 350 357 41 52 40 32 26 15 9 135 126 112 6 224 226 321 66 259 334 5 350 348 340 330 326 327 319 309 305 285 260 249 246 256 250 246 251 252 285 279 209 224 238 263 272 244 196 198 257 268 233 183 142 60 17 106 124 191 202 90 113 104 109 129 113 108 106 105 106 106 105 103 102 100 97 95 92
357 356 357 354 355 355 356 354 348 354 354 348 349 41 74 47 38 32 27 63 117 124 85 9 332 226 89 86 320 343 353 350 346 341 343 337 326 319 309 299 278 255 237 225 244 238 224 226 197 211 235 228 242 248 267 297 296 290 245 280 290 307 330 197 82 10 92 100 173 149 89 99 103 105 115 111 111 110 109 111 109 108 106 104 103 101 98 95
354 354 355 352 353 352 353 353 347 353 355 345 337 279 147 64 53 40 24 29 154 174 71 5 344 205 92 45 3 343 339 334 326 337 349 349 337 320 303 294 300 283 248 226 220 217 210 194 199 268 266 229 262 297 286 321 337 328 335 315 307 329 322 305 71 75 23 41 101 111 100 106 110 104 104 106 109 109 109 110 109 108 106 105 103 101 99 96
349 351 352 351 351 350 349 351 346 351 354 341 334 313 223 120 72 55 35 35 35 272 71 359 352 16 351 11 359 337 329 312 305 353 356 350 338 309 289 271 277 279 263 255 206 200 206 235 249 303 344 359 1 7 341 334 336 320 317 307 299 299 297 336 83 6 331 83 85 98 108 117 114 107 101 100 104 108 112 114 112 112 109 108 105 103 103 98
346 350 351 349 348 346 346 346 344 348 351 342 335 321 261 244 172 80 38 39 50 48 77 19 4 27 3 354 340 339 337 280 280 19 4 348 331 303 284 253 246 246 266 313 233 191 329 310 3 17 359 352 354 356 342 334 330 316 308 299 292 280 286 68 94 319 337 63 87 98 107 110 107 106 103 103 111 114 118 119 115 115 112 111 110 108 105 102
345 348 347 345 342 342 343 341 343 346 350 355 345 312 306 12 317 150 44 48 52 33 63 29 332 35 26 338 334 345 350 251 251 17 4 348 331 301 315 291 259 221 313 312 252 94 2 337 24 13 345 336 333 339 344 336 321 308 300 286 287 282 298 67 85 261 341 73 109 111 105 101 102 96 90 96 108 111 115 119 116 115 113 113 116 114 112 112
346 344 343 341 339 340 339 337 345 351 3 27 22 30 68 46 34 117 237 105 69 7 347 351 338 29 31 327 349 335 317 351 341 8 358 349 348 347 337 338 330 342 13 359 313 319 78 72 21 347 333 327 312 316 329 318 298 284 282 264 273 311 47 72 69 144 136 89 133 126 105 103 106 92 85 81 88 94 100 111 117 121 122 124 126 123 126 126
342 340 339 339 339 339 337 338 354 10 38 55 49 54 75 89 89 94 271 115 90 295 314 24 29 24 7 18 4 339 349 27 348 355 355 348 355 352 330 354 345 321 9 25 352 328 20 59 9 330 313 324 319 325 344 326 295 261 263 263 272 25 40 187 85 189 203 178 133 122 103 110 113 96 88 77 85 95 99 112 119 124 128 129 131 130 133 131
336 338 340 340 342 342 340 353 12 28 55 61 60 66 96 126 78 85 262 174 106 175 23 14 27 24 4 347 345 338 12 40 349 350 356 353 347 313 324 2 340 340 26 6 326 329 65 37 350 311 284 304 313 341 22 358 318 316 22 341 341 11 344 259 299 287 226 222 133 122 108 141 143 127 110 94 104 109 108 118 115 116 121 125 132 133 132 133
339 342 345 346 347 347 348 29 25 34 65 55 49 40 40 58 358 23 273 209 96 86 113 272 225 21 354 319 325 329 342 37 14 347 350 5 350 310 337 332 319 13 13 344 327 112 76 42 335 315 309 322 315 16 38 9 324 339 35 11 347 337 320 295 306 312 270 254 180 157 158 186 152 136 129 139 139 127 125 123 115 118 127 132 137 134 132 134
350 353 355 354 355 353 356 108 19 25 85 61 24 340 341 346 330 18 289 217 100 9 334 31 231 4 2 334 333 2 155 24 3 346 353 17 2 274 338 337 286 26 0 341 1 82 354 2 346 330 310 304 309 79 44 18 336 311 271 322 328 312 299 282 287 282 247 270 202 183 206 189 154 136 139 157 149 141 147 136 131 136 140 142 134 133 136 133
4 6 6 4 3 4 14 26 0 11 89 28 358 347 352 347 19 47 250 193 94 297 333 9 330 353 3 333 333 47 150 320 323 7 14 6 359 204 317 8 5 4 29 356 358 46 339 357 5 350 320 306 9 47 27 32 338 280 225 269 288 280 274 266 266 247 249 293 230 196 212 196 159 138 140 153 145 151 162 147 149 157 153 150 141 143 143 134
15 16 15 9 6 18 30 357 359 23 20 340 342 358 12 38 47 25 257 155 28 303 293 2 324 339 337 316 349 62 149 309 319 1 354 348 1 254 255 32 354 318 3 10 352 20 357 16 11 349 341 5 11 331 357 51 284 273 274 284 280 271 272 270 267 258 261 282 261 206 201 196 117 126 142 160 159 165 170 158 159 163 158 151 146 146 141 136
20 24 20 10 3 15 19 5 31 48 345 331 329 358 39 54 10 290 273 183 341 330 204 350 342 333 328 314 28 45 29 11 13 325 327 359 22 340 239 47 344 312 317 326 1 26 48 51 25 347 1 8 324 309 329 136 236 301 322 295 273 256 254 254 248 254 261 257 260 202 188 184 95 138 166 181 187 177 162 158 158 158 155 146 142 140 132 130
18 25 16 8 8 10 6 36 44 17 326 336 353 47 81 51 306 229 14 336 343 358 251 358 354 314 335 353 39 15 5 33 9 321 334 42 25 9 58 83 333 316 274 15 37 60 73 66 38 34 18 310 286 287 270 221 253 321 320 292 275 252 219 219 229 233 269 251 214 119 156 113 109 121 92 143 220 130 134 146 151 151 152 145 141 139 135 136
5 12 7 7 13 12 9 94 356 338 327 349 94 96 93 225 318 56 58 108 9 351 334 1 354 332 351 12 16 355 353 357 357 359 6 32 28 18 29 27 343 349 54 16 32 137 134 76 33 42 329 290 288 288 247 204 258 329 299 287 298 282 174 219 225 193 233 248 201 71 25 13 122 101 58 68 22 15 93 145 152 155 157 149 144 143 146 147
350 353 3 7 12 16 15 321 312 314 319 29 130 130 245 205 41 29 354 313 292 355 6 331 336 342 342 339 344 345 342 333 353 16 359 27 52 36 41 32 350 359 9 344 333 309 125 98 89 157 206 348 324 322 352 194 271 308 296 320 331 322 340 300 244 216 238 186 157 106 17 22 86 75 60 66 34 7 21 136 149 155 156 146 148 150 146 139
347 353 4 5 10 17 9 341 320 303 160 99 150 244 274 60 48 34 331 350 334 321 309 243 302 314 306 311 348 345 299 242 345 348 316 67 84 66 61 45 10 8 345 317 327 336 356 76 31 41 300 336 348 357 354 317 321 325 326 344 332 329 337 304 296 307 306 88 138 125 34 63 121 73 44 65 48 11 16 69 124 140 145 145 147 140 135 143
346 0 4 2 8 11 1 353 343 314 122 113 223 314 56 63 60 139 356 5 18 321 312 291 303 296 291 14 25 359 357 216 355 356 342 34 71 49 52 41 21 17 321 306 356 342 325 337 345 353 315 322 4 47 310 286 297 297 299 314 328 10 8 294 316 324 311 318 310 95 49 31 144 113 70 82 67 40 38 56 85 102 116 120 120 125 145 171
350 358 3 1 3 1 357 359 0 106 128 178 276 51 59 73 52 34 9 341 346 334 326 323 308 298 30 97 131 50 41 321 3 22 15 29 48 30 34 27 19 20 347 337 12 329 328 320 256 324 327 341 18 45 289 307 301 281 306 339 338 347 288 272 294 294 283 299 305 102 70 26 69 106 110 112 99 85 79 80 89 96 100 107 128 157 175 173
31 29 9 4 1 357 356 0 23 111 164 271 65 62 52 79 21 9 15 328 333 325 313 315 321 347 11 17 45 26 57 210 329 357 81 67 49 46 50 21 11 25 29 354 309 324 346 298 251 235 339 32 54 358 329 351 329 307 353 4 286 256 202 268 292 295 291 282 295 94 98 84 113 117 134 146 123 114 122 121 124 131 133 151 175 180 173 156
65 29 7 4 1 359 1 2 15 101 223 36 75 73 32 70 11 356 10 336 328 294 309 331 38 5 347 340 0 357 347 293 329 336 69 95 31 23 24 35 30 25 32 8 298 45 29 292 289 294 254 176 63 348 319 313 319 354 358 325 302 287 110 85 292 310 325 301 305 59 104 164 204 159 166 178 153 145 159 153 151 153 161 187 188 170 167 164
57 271 4 5 359 360 5 0 343 299 349 68 80 85 36 48 21 15 13 334 288 253 323 3 39 8 349 341 338 345 349 352 340 343 25 55 342 3 3 28 35 11 4 9 302 355 5 299 293 314 356 134 124 17 350 304 313 74 290 308 335 27 28 348 319 313 319 304 304 329 35 78 25 124 162 181 167 165 171 161 164 173 184 201 185 163 166 172
358 249 128 2 354 357 4 359 346 338 68 72 80 90 58 60 61 42 15 335 273 286 355 26 10 25 20 342 322 338 2 357 332 333 15 17 355 26 25 354 342 344 348 357 308 316 328 295 280 316 327 127 139 37 28 352 331 358 355 2 41 147 305 323 296 250 283 290 304 326 344 37 21 41 114 114 112 149 168 173 186 193 190 184 152 137 162 196
324 223 62 358 352 351 359 7 28 43 58 64 67 71 49 87 99 70 28 5 298 286 18 4 338 358 355 333 327 353 0 334 321 336 22 22 8 45 39 12 325 324 328 329 311 323 323 288 292 317 321 340 100 22 36 52 3 357 19 18 12 340 324 314 276 176 287 294 306 326 315 166 114 8 82 100 78 93 137 165 181 173 158 142 134 165 218 241
309 147 4 351 350 342 348 21 45 39 61 68 64 72 33 325 104 77 86 25 335 149 63 1 339 350 340 337 342 357 342 312 320 356 39 39 30 37 43 14 332 326 325 330 349 2 356 314 296 307 316 340 81 9 29 92 53 0 25 37 19 6 1 332 311 50 21 314 289 292 290 217 141 28 76 109 114 86 75 86 120 132 139 166 196 213 257 290
345 117 346 349 356 11 31 56 37 19 69 67 46 77 50 279 70 57 147 125 301 225 136 78 341 350 5 359 336 342 347 322 338 9 37 61 42 30 27 331 318 308 315 340 3 29 17 294 280 289 311 39 82 343 358 58 58 47 66 58 37 37 45 332 287 341 355 311 274 227 251 252 238 100 93 106 122 112 86 75 100 151 176 207 238 280 313 310
26 110 357 358 359 18 56 71 55 31 68 116 147 84 21 12 63 237 153 47 317 262 280 9 32 23 47 30 330 336 356 350 10 27 39 61 62 28 1 346 329 307 306 342 352 4 329 244 282 294 306 78 88 311 329 33 40 53 87 58 52 86 89 243 258 346 332 290 300 288 259 265 244 168 134 133 122 125 139 124 167 256 251 265 292 305 294 285
50 95 17 13 23 59 69 68 93 78 83 148 125 80 28 37 42 23 41 34 359 320 344 12 69 31 355 23 262 308 339 7 39 59 47 34 73 205 331 5 359 0 25 17 339 340 344 325 324 322 330 355 1 330 329 359 4 341 65 67 72 99 83 272 281 34 247 297 355 305 280 288 192 187 164 157 164 192 193 174 200 240 264 277 285 291 288 293
93 79 25 22 38 60 78 50 102 115 117 119 101 72 83 85 36 340 1 24 355 331 337 314 132 296 298 277 236 258 302 97 47 70 59 24 75 179 191 21 350 10 51 45 308 328 309 285 325 358 2 336 321 309 314 327 332 323 66 90 88 90 67 312 336 9 224 339 360 285 259 322 181 191 196 185 188 209 212 210 221 237 265 284 295 302 298 297
66 53 23 16 36 53 71 29 55 104 123 115 92 32 16 76 125 237 271 10 328 310 300 278 235 186 314 335 314 295 31 129 142 66 44 9 354 166 150 164 265 28 102 236 267 301 283 278 1 28 282 272 285 285 303 323 311 300 321 27 93 109 88 19 317 259 274 323 324 222 321 329 311 279 238 193 194 219 226 252 280 288 295 295 295 291 290 295
48 59 4 12 47 50 62 38 23 62 112 96 98 25 13 65 123 203 225 188 131 330 271 255 21 38 3 349 337 353 356 355 106 75 44 329 336 339 169 181 249 170 154 195 207 161 317 295 48 9 280 259 265 274 286 293 286 300 321 335 19 115 109 60 252 277 324 319 277 326 6 329 310 318 317 170 184 236 272 295 290 281 283 290 296 296 301 307
38 137 267 305 72 28 42 17 3 47 55 46 101 42 14 53 59 29 355 273 158 137 274 219 39 31 26 350 316 341 353 349 53 77 41 344 340 321 212 197 241 182 156 162 155 110 351 282 171 317 293 288 278 267 271 271 281 313 321 317 330 129 155 204 249 278 308 262 266 318 336 308 298 316 1 109 134 282 283 276 270 280 298 311 314 308 307 306
61 106 302 322 103 77 63 299 315 48 56 49 85 45 18 42 45 57 193 293 183 78 7 11 12 10 19 347 328 359 9 359 357 352 72 24 329 319 12 73 271 277 71 36 21 115 148 273 216 207 286 300 294 247 256 263 275 307 315 311 316 227 215 239 249 275 283 264 275 300 300 292 295 315 78 121 242 254 257 266 284 305 314 316 308 301 300 303
105 119 119 87 87 77 138 262 285 64 53 26 60 38 354 36 42 48 126 1 22 36 13 5 348 342 328 314 359 56 50 3 314 289 341 16 333 343 52 76 309 336 359 29 11 339 121 2 306 223 292 306 294 221 278 282 317 322 316 186 244 275 280 262 242 266 280 271 276 285 288 291 276 202 207 238 252 259 267 284 299 309 314 311 305 301 298 297
91 108 128 111 87 19 298 271 303 71 50 19 34 34 342 37 39 345 2 23 29 35 17 346 332 323 253 151 60 68 45 341 294 299 336 344 331 1 11 13 10 330 329 23 12 315 1 318 293 353 323 301 330 328 309 311 57 356 301 246 252 274 291 284 262 258 261 268 281 284 284 284 243 199 232 256 266 287 298 302 308 314 315 310 304 299 295 300
93 89 97 101 96 354 324 351 11 62 69 18 28 34 358 51 49 309 35 39 58 61 34 325 319 314 263 105 69 52 355 311 299 319 336 305 295 299 288 354 36 276 309 1 246 228 70 300 302 9 324 286 325 328 310 307 353 313 266 266 297 304 311 307 284 265 262 272 283 278 275 282 288 293 294 286 295 307 309 311 316 313 303 297 293 291 293 346
Height
810 810 810 810 810 809 809 808 808 807 807 806 806 805 804 804 803 802 802 801 801 800 800 800 799 798 797 797 796 795 793 793 793 792 792 793 793 793 792 791 790 790 789 788 787 787 786 785 784 783 784 783 784 783 781 781 782 788 797 805 806 799 792 782 777 778 777 780 782 782 781 782 788 789 788 789 791 793 796 800 805 808 810 814 816 818 820 822
810 810 810 810 810 809 809 808 808 807 807 807 806 805 804 804 803 802 802 801 801 800 800 799 799 798 797 796 796 794 793 793 792 791 793 793 793 793 792 791 790 789 788 788 787 786 785 783 782 781 783 784 782 781 782 781 782 790 796 802 801 791 783 774 774 776 777 781 780 780 782 783 786 788 789 792 794 795 799 803 806 812 816 818 819 821 822 824
811 811 810 810 810 809 809 809 808 808 807 807 806 805 804 803 803 802 801 801 800 800 799 799 798 797 797 796 795 794 793 792 792 792 794 794 793 792 792 791 790 789 788 787 787 786 785 783 782 781 782 784 781 780 784 782 783 787 792 799 793 782 778 773 774 777 779 781 779 781 783 785 786 786 789 791 793 801 809 810 809 813 818 819 820 822 823 825
811 811 810 810 810 809 809 809 808 808 807 806 805 804 804 803 802 801 801 800 800 799 799 798 798 797 796 795 795 794 793 794 793 793 794 793 793 792 791 791 790 789 788 787 787 786 785 783 782 781 783 785 780 778 782 782 782 784 787 793 784 777 778 776 776 778 779 781 781 783 785 787 786 786 791 790 796 811 818 817 815 814 816 819 821 822 824 826
811 811 810 810 810 810 809 809 808 807 806 805 804 803 803 802 801 801 800 800 799 799 798 798 797 796 796 795 795 794 795 799 797 794 795 794 793 793 791 791 790 789 788 787 787 786 785 783 782 783 785 786 783 780 780 777 778 782 782 782 778 776 778 776 778 780 780 781 782 783 786 788 787 792 800 798 806 820 821 820 819 816 816 818 821 822 824 826
812 811 811 810 810 810 809 808 807 806 806 805 804 803 802 801 801 800 799 799 798 798 797 797 797 796 796 795 795 794 797 802 798 794 795 794 793 792 791 791 789 789 788 788 787 785 784 783 783 785 785 786 784 782 779 773 774 783 782 777 775 776 777 776 779 783 781 782 784 784 786 786 789 802 809 810 818 823 822 821 819 818 817 818 821 823 826 828
812 811 811 811 810 810 809 808 807 806 805 804 803 802 801 800 800 799 798 798 797 797 796 796 796 796 795 794 795 794 795 798 796 795 795 794 793 792 791 790 789 789 788 788 787 785 784 783 784 784 784 785 783 779 776 771 772 782 784 778 775 775 776 777 781 784 783 784 785 785 787 786 791 806 812 816 823 822 821 821 820 820 819 821 823 826 829 832
812 812 811 811 810 810 809 808 807 805 804 803 802 801 800 799 798 798 797 797 797 796 796 796 795 795 795 795 795 794 794 797 797 796 795 793 793 791 791 790 789 789 788 788 786 785 785 784 783 782 784 783 779 777 775 774 776 781 783 778 775 776 776 778 782 784 784 785 786 786 790 793 796 806 816 822 824 823 822 822 821 823 824 826 828 831 834 837
812 812 811 811 810 809 809 808 806 805 804 802 801 800 799 798 797 797 796 796 796 796 795 795 795 795 795 794 794 795 796 797 797 796 794 793 792 791 791 790 790 789 788 787 785 786 786 785 783 781 784 782 777 777 777 781 784 779 778 777 775 776 775 778 782 784 785 785 787 789 792 800 801 805 820 826 825 825 824 824 826 826 828 831 834 836 839 841
812 812 812 811 810 809 808 807 806 805 803 802 801 799 798 797 796 795 795 795 795 795 794 794 794 794 794 793 794 798 798 796 796 795 794 792 791 791 791 790 790 789 788 787 785 785 784 785 783 781 783 783 780 779 777 782 784 778 777 777 777 777 775 779 782 782 785 786 787 790 794 800 799 804 824 829 826 827 827 829 831 832 834 837 839 841 844 845
813 812 812 811 810 809 808 807 806 804 803 802 800 798 797 796 795 794 794 794 794 794 794 794 794 794 794 793 794 798 798 796 796 795 794 793 792 791 790 790 789 789 788 786 785 784 784 785 784 783 785 785 783 780 778 780 781 778 779 781 780 778 777 779 782 782 785 787 787 788 795 801 803 813 828 829 827 830 831 834 836 838 841 843 845 847 849 850
813 813 812 811 810 809 808 807 805 804 803 801 799 797 796 795 794 793 793 793 793 793 793 794 794 794 794 793 796 798 797 797 796 795 794 793 791 790 789 789 788 788 788 787 785 784 785 785 784 786 786 785 785 783 783 781 780 779 781 787 784 778 777 776 779 782 784 787 786 787 797 809 816 824 829 828 830 832 834 838 840 843 846 848 850 851 853 855
813 813 812 811 810 809 808 806 805 803 802 800 799 797 796 795 794 793 793 793 793 793 793 793 793 794 794 795 797 798 797 797 796 795 794 792 791 790 788 788 788 787 787 787 786 785 785 785 785 786 784 785 787 786 785 781 781 783 783 786 787 784 780 774 776 782 785 787 784 786 802 819 826 827 827 828 831 834 838 842 844 847 850 852 854 855 857 859
813 813 812 811 810 809 807 806 804 803 802 800 799 797 797 795 795 794 793 793 793 793 793 793 794 794 795 797 798 797 797 796 795 795 794 792 790 789 788 788 787 787 787 786 785 785 785 784 784 784 784 786 786 785 786 783 782 786 785 785 788 792 787 778 778 784 788 789 785 788 803 820 828 828 827 828 830 835 841 844 847 850 852 855 857 858 860 862
813 813 812 811 810 808 807 805 804 803 801 800 798 798 797 796 795 794 793 793 793 793 793 793 793 794 795 797 797 797 797 795 795 795 793 792 790 789 788 787 787 787 786 786 785 785 784 784 784 785 784 784 785 788 789 786 783 785 790 791 788 791 791 785 782 783 788 790 786 790 805 821 828 829 827 827 831 837 842 847 849 852 854 857 859 860 862 864
813 812 811 810 809 808 807 805 804 803 801 799 798 798 797 796 795 794 793 793 793 793 793 794 794 794 797 799 797 796 797 796 795 795 793 792 791 789 788 787 786 786 785 785 785 784 784 784 784 785 785 785 787 789 791 789 784 781 789 793 786 785 790 790 787 784 785 790 789 791 807 824 828 828 827 828 833 838 843 848 850 853 855 857 860 862 864 866
813 812 811 810 809 808 806 805 804 802 801 799 798 798 797 797 796 794 794 793 794 794 793 795 793 794 798 798 798 797 797 797 796 794 793 791 790 789 788 786 784 784 784 785 785 784 784 784 785 786 785 787 785 785 793 798 793 787 788 791 785 783 787 789 792 789 785 790 792 794 811 827 829 828 828 829 834 839 844 848 851 853 856 858 861 863 865 867
813 812 811 810 808 808 806 805 804 802 801 799 798 797 797 797 796 795 795 795 794 793 794 795 793 800 804 799 799 800 797 797 795 794 792 791 789 788 788 786 784 784 783 785 785 784 783 783 784 786 786 787 786 788 798 803 801 798 796 795 792 790 788 787 792 793 790 792 793 801 819 830 830 830 829 831 835 840 845 848 851 854 857 860 862 864 867 868
813 812 811 809 808 807 806 805 803 802 800 798 797 797 797 797 797 797 796 795 797 799 803 802 800 807 809 802 801 800 797 796 795 794 792 790 788 787 786 786 785 784 785 787 785 782 784 785 786 792 796 795 794 796 800 800 798 798 797 797 798 797 791 790 796 796 792 793 796 806 821 830 832 833 832 834 837 841 846 849 852 855 858 861 863 866 868 869
812 811 810 809 808 807 805 804 803 802 800 799 797 797 797 798 799 800 799 799 803 806 808 808 805 806 806 803 802 800 797 796 795 794 793 789 788 786 785 785 785 785 787 789 787 784 785 791 798 804 805 802 799 798 797 796 794 795 796 796 797 795 792 794 799 798 792 797 806 814 822 830 833 835 836 837 839 843 846 849 853 856 859 862 865 867 869 870
812 811 810 809 807 806 805 804 803 802 800 799 797 797 799 801 803 804 805 806 808 807 807 807 806 806 806 805 804 802 800 797 794 794 794 790 787 787 786 784 785 787 787 786 786 786 788 798 807 807 805 802 799 797 796 797 796 797 798 798 797 794 795 798 799 798 795 799 812 819 825 835 837 838 839 839 842 844 846 850 854 857 860 863 866 868 870 871
812 811 809 808 807 806 804 803 803 801 800 799 798 799 801 803 804 804 805 808 809 808 807 807 806 806 806 805 804 803 803 802 798 796 796 792 788 790 790 786 787 788 786 786 789 791 795 805 808 804 803 801 797 796 796 798 798 799 799 799 799 795 797 801 799 798 795 798 811 819 829 840 841 842 844 843 846 847 848 852 855 858 861 864 866 868 869 871
811 810 809 808 806 805 804 803 803 801 800 800 800 801 803 804 804 804 804 807 810 810 807 807 807 807 806 805 805 803 803 806 805 800 798 796 793 793 794 793 793 791 789 794 797 798 803 807 806 803 803 802 799 796 797 800 798 798 799 797 798 797 798 801 800 798 795 796 805 818 833 844 844 846 848 848 849 850 851 853 855 858 861 863 865 867 868 870
811 809 809 807 806 805 803 803 803 802 802 801 802 803 804 804 803 805 804 804 809 810 808 808 808 808 808 806 806 805 805 807 807 804 801 800 798 795 796 799 798 795 797 800 799 802 807 806 805 804 802 801 801 800 802 806 802 798 800 800 799 801 801 801 798 795 795 796 802 815 831 842 846 849 853 853 852 853 854 855 856 858 861 863 865 866 868 869
810 809 808 806 805 804 802 803 803 802 803 802 804 804 804 805 804 805 805 805 810 812 809 810 808 809 808 807 806 806 807 807 807 806 803 803 802 799 798 798 799 801 804 802 799 803 807 805 805 805 803 800 801 804 808 810 807 802 805 807 804 803 803 801 798 797 801 800 800 806 814 829 842 847 853 855 854 856 856 856 859 860 861 863 864 866 867 868
810 809 808 806 805 803 802 803 803 803 803 803 805 805 804 805 804 805 806 809 816 817 812 810 810 811 809 807 805 804 809 810 806 806 804 804 805 804 803 799 798 804 807 805 804 806 806 804 804 806 805 802 802 808 811 811 812 808 806 808 807 806 806 803 801 802 803 797 795 798 800 816 838 846 849 853 853 856 857 858 861 861 862 863 863 866 867 868
809 808 808 806 805 804 803 803 804 803 803 805 806 804 805 805 804 806 808 815 822 820 816 813 812 813 811 809 805 806 815 814 806 805 804 804 804 804 806 805 803 804 805 807 808 809 810 808 808 809 806 804 806 811 811 813 815 810 806 809 807 806 806 803 803 803 800 794 793 798 796 802 826 844 846 848 852 856 857 858 861 861 861 862 863 865 866 868
809 809 808 806 805 804 804 804 804 804 805 806 805 805 806 805 805 806 811 825 829 820 819 817 813 813 811 809 807 810 817 814 811 809 804 805 805 803 806 808 809 806 804 808 811 811 813 813 815 815 811 810 813 814 812 815 816 809 807 809 806 806 806 802 804 803 800 799 797 798 797 797 820 844 845 845 852 854 856 857 859 860 860 861 863 864 865 867
810 809 808 807 806 804 804 805 804 805 806 805 805 806 805 804 807 807 812 827 829 821 822 818 814 816 813 810 811 812 814 814 816 813 805 806 807 805 807 809 810 809 805 807 811 813 815 816 817 817 816 817 817 814 812 815 815 808 808 810 807 807 807 804 806 805 800 802 800 795 793 797 821 845 843 843 848 850 853 856 856 858 859 860 862 864 865 867
810 809 809 807 805 804 804 804 804 805 805 805 806 805 805 807 808 811 820 830 829 825 822 818 820 823 820 817 817 816 816 816 816 813 808 809 809 807 808 809 808 809 809 807 811 816 818 818 818 818 819 820 818 814 812 813 813 810 809 808 803 802 806 806 804 801 801 803 797 792 791 793 816 841 844 845 848 847 850 854 856 858 859 861 862 864 866 867
810 810 809 807 806 805 804 804 805 805 804 805 806 805 807 808 807 816 830 831 828 828 825 825 827 826 825 827 826 822 821 819 816 816 815 814 817 816 814 817 816 812 811 810 813 818 819 819 818 820 822 820 817 812 809 812 814 815 813 807 802 798 800 804 800 799 806 804 795 795 793 789 812 842 849 850 850 848 849 852 856 858 859 861 863 864 866 867
811 811 809 808 807 805 805 805 804 804 805 805 805 806 807 809 817 831 835 829 831 836 835 835 833 829 831 831 830 829 827 824 819 820 822 822 828 831 829 835 834 827 824 820 818 816 817 820 820 821 822 820 818 813 810 813 813 814 810 808 809 803 799 803 800 798 801 799 796 797 793 798 828 852 852 852 853 850 848 849 853 857 858 861 862 864 865 866
811 811 810 809 807 806 805 805 804 804 805 804 806 807 806 816 834 844 837 832 839 841 839 840 836 833 834 831 832 833 830 828 823 821 821 821 830 836 837 842 841 839 837 830 825 823 821 821 820 821 822 819 818 818 819 817 815 815 811 811 816 814 817 818 805 799 798 797 799 797 796 815 844 856 854 855 856 852 850 848 851 855 857 861 862 864 865 866
811 811 811 809 807 806 805 804 804 804 805 806 806 806 811 828 844 846 841 840 842 840 839 840 838 835 833 833 837 837 832 829 825 824 823 822 830 837 840 845 844 845 843 834 832 834 829 824 823 823 822 820 821 824 827 824 822 821 813 811 815 819 833 834 817 813 813 805 800 796 804 826 844 853 857 857 856 854 854 852 853 856 857 860 862 864 865 866
811 811 811 809 807 807 805 805 805 804 806 806 806 811 825 840 845 844 848 849 845 845 842 841 840 835 831 834 837 839 838 834 827 827 830 831 837 842 845 851 850 849 849 842 838 836 830 824 824 826 823 822 825 825 827 827 824 819 811 813 820 822 830 830 820 818 818 814 808 809 828 846 851 856 858 857 857 857 857 856 857 859 860 862 863 864 865 865
811 811 811 810 809 807 806 806 804 805 806 804 811 829 843 851 851 850 855 854 851 854 850 842 841 837 834 834 835 837 840 838 831 830 835 840 845 847 850 854 854 852 855 854 847 841 838 830 823 826 826 824 828 828 826 828 825 818 816 823 825 821 823 829 825 815 812 818 814 815 840 857 857 858 858 857 859 859 858 859 859 860 862 862 863 863 863 864
812 812 812 811 809 808 807 806 805 806 805 805 821 843 850 854 859 858 858 857 856 858 852 844 842 843 842 839 837 839 840 838 834 832 834 840 848 853 854 855 854 853 856 859 853 845 848 842 824 820 824 825 830 830 826 828 828 825 827 826 823 820 821 827 830 823 821 826 814 807 829 847 849 854 859 858 859 859 859 859 859 860 861 861 861 862 862 863
812 812 812 811 810 810 807 806 806 805 805 813 835 849 850 855 861 860 862 862 859 858 853 848 846 845 846 845 843 843 842 840 838 836 836 840 849 858 860 857 856 854 855 860 857 848 851 850 830 817 822 827 831 830 826 827 827 827 828 824 826 834 834 830 833 837 840 839 825 812 818 835 844 850 855 855 854 857 858 857 859 860 859 860 859 860 861 862
812 813 813 813 812 810 808 807 806 804 808 823 843 850 852 859 863 863 866 865 861 858 853 852 851 846 847 849 848 846 845 846 843 839 839 843 850 860 864 862 860 859 857 859 859 852 850 852 838 820 820 826 827 829 831 833 829 825 827 826 830 838 839 835 835 841 844 843 838 827 823 838 850 847 848 851 849 853 856 856 858 857 857 858 857 859 860 860
813 813 815 814 812 811 810 808 807 811 822 835 846 852 855 860 863 865 867 865 862 859 855 855 855 852 851 850 849 849 849 848 844 840 842 847 853 862 870 869 866 865 863 859 859 856 850 850 845 831 822 823 830 835 836 839 838 834 834 839 841 839 837 838 835 834 840 841 843 842 836 844 852 847 846 851 849 850 851 852 854 854 855 857 857 859 859 859
812 815 817 814 813 812 810 811 816 823 834 844 849 854 859 860 861 864 866 867 864 860 859 859 857 856 855 853 851 852 851 849 845 842 846 851 856 862 871 876 874 872 867 859 859 862 857 855 855 846 832 829 837 842 838 838 840 839 840 843 847 847 847 852 847 838 842 842 842 846 843 845 851 848 847 851 850 850 850 850 852 854 855 857 857 858 858 858
814 819 820 815 814 812 811 821 833 835 843 853 856 858 861 860 861 862 864 866 864 861 861 860 858 858 858 857 856 854 854 852 847 846 849 855 861 867 873 878 877 875 872 863 860 865 865 864 861 851 839 840 845 844 841 841 839 839 843 844 847 850 855 862 859 852 853 848 841 843 843 847 853 850 848 851 851 852 852 852 853 854 855 856 856 856 856 857
818 822 820 816 815 812 815 831 844 846 854 861 860 861 862 860 860 860 861 863 862 860 859 858 859 860 860 860 860 857 857 855 851 851 853 856 867 875 876 877 876 873 871 868 865 867 865 863 859 847 838 842 848 844 841 843 841 840 845 850 853 856 860 862 861 863 864 852 843 843 842 847 853 850 849 852 852 853 854 854 855 855 854 855 855 855 856 856
820 821 820 818 815 812 821 836 846 852 858 859 858 861 863 862 862 862 862 864 863 862 861 859 860 862 861 861 861 859 858 857 855 856 856 857 868 877 876 877 877 872 871 873 873 871 864 856 855 854 850 849 849 847 844 844 843 841 847 857 860 860 864 863 861 866 864 850 845 848 845 845 851 850 849 852 853 854 854 854 855 855 854 855 855 854 855 855
821 822 822 822 818 818 829 839 843 850 855 855 857 860 860 862 866 866 864 865 865 865 864 862 862 863 862 859 859 858 857 858 858 859 860 861 868 876 877 877 876 874 876 878 877 876 870 859 856 862 868 868 863 859 853 849 847 844 847 859 864 864 868 866 864 866 861 852 849 849 847 846 848 849 850 852 853 854 853 853 853 854 853 853 854 854 854 854
821 826 829 828 826 829 837 841 841 847 852 852 856 859 858 860 866 867 866 866 866 866 865 862 862 863 861 859 859 857 855 857 859 860 865 867 868 873 875 875 875 874 877 879 878 878 871 861 860 863 868 869 865 858 852 849 851 849 847 854 861 867 871 869 867 865 860 860 856 847 847 850 846 845 848 850 853 853 852 852 852 852 853 852 852 852 852 852
825 834 838 836 836 838 841 844 845 847 849 850 857 861 859 859 862 864 865 865 866 866 865 862 862 863 864 864 864 861 857 858 859 863 871 873 870 871 873 874 874 873 876 877 876 877 870 863 867 868 864 861 859 855 850 849 851 851 850 854 857 864 870 870 868 862 860 865 858 843 846 854 848 843 845 848 851 852 852 853 852 851 851 850 850 850 850 851
830 839 843 841 843 847 847 848 850 850 849 851 858 862 859 859 862 864 865 864 865 866 864 862 862 864 866 868 867 865 863 861 862 867 874 875 874 872 871 872 872 871 874 873 872 876 874 867 870 870 863 858 856 852 848 848 850 850 853 855 856 861 867 867 866 862 860 863 857 846 850 854 849 846 847 850 852 852 852 852 850 850 849 849 849 849 849 850
833 839 843 842 846 852 854 853 852 850 851 853 858 863 862 861 864 866 867 865 863 864 863 863 865 866 866 867 867 867 870 870 870 873 876 877 877 874 871 873 872 869 871 872 873 877 874 866 867 869 865 857 851 847 846 848 852 852 854 856 856 858 860 861 862 861 859 859 855 852 854 852 848 849 851 851 851 851 850 849 848 849 848 848 849 848 848 848
832 836 840 842 847 853 855 854 852 850 851 853 857 864 864 863 866 868 868 867 864 864 865 867 869 868 867 866 867 870 875 876 876 877 877 877 877 875 875 876 876 873 871 872 875 875 872 866 863 866 865 854 845 846 847 847 852 855 855 855 857 857 857 857 860 861 861 860 855 854 856 852 848 849 849 849 849 847 847 848 847 847 847 847 847 847 847 847
830 832 835 839 848 854 853 852 850 849 855 859 860 864 865 865 868 869 869 869 869 869 870 871 871 869 866 866 868 874 878 879 878 878 878 879 878 877 877 877 878 878 875 875 877 876 874 873 865 864 868 856 844 846 845 843 850 859 858 856 855 856 857 856 857 857 858 858 856 857 858 850 845 846 846 846 846 845 846 846 845 845 846 847 847 846 845 846
831 833 832 835 846 853 852 851 849 851 860 866 865 866 866 866 868 869 867 869 872 872 873 873 873 870 866 866 872 878 879 879 879 879 878 879 878 877 877 877 878 880 878 879 880 877 878 879 870 866 869 860 848 848 846 844 851 858 859 859 857 857 858 858 856 853 851 853 855 856 851 843 839 842 844 844 845 845 845 845 845 845 845 845 845 845 844 845